Springfield, MO

10:16 PM CST on February 13, 2016 (GMT -0600)
Springfield-Branson Regional

Weather History for KSGF - January, 2012

Change the Weather History Date:

Thursday, January 19, 2012

  Actual Average Record
Temperature  
Mean Temperature 38 °F 32 °F  
Max Temperature 51 °F 43 °F 72 °F (1951)
Min Temperature 25 °F 22 °F -13 °F (1984)
Degree Days  
Heating Degree Days 27 32  
Month to date heating degree days 525 623  
Since 1 July heating degree days 2202 2433  
Cooling Degree Days 0 0  
Month to date cooling degree days 0 0  
Year to date cooling degree days 0 0  
Moisture  
Dew Point 21 °F    
Average Humidity 56    
Maximum Humidity 75    
Minimum Humidity 36    
Precipitation  
Precipitation 0.00 in 0.08 in 2.12 in (1990)
Month to date precipitation 0.01 1.58  
Year to date precipitation 0.01 1.58  
Snow  
Snow 0.00 in - - ()
Month to date snowfall 0.7  
Since 1 July snowfall 1.1  
Snow Depth 0.00 in    
Sea Level Pressure  
Sea Level Pressure 29.93 in    
Wind  
Wind Speed 8 mph (East)    
Max Wind Speed 15 mph    
Max Gust Speed 20 mph    
Visibility 10 miles    
Events      
T = Trace of Precipitation, MM = Missing Value Source: NWS Daily Summary

Daily Weather History Graph

Daily Weather History Graph

Search for Another Location

Airport or City:

Trip Planner

Search our weather history database for the weather conditions in past years. The results will help you decide how hot, cold, wet, or windy it might be!

Date:

Astronomy

Jan. 19, 2012 Rise Set
Actual Time 7:25 AM CST 5:23 PM CST
Civil Twilight 6:56 AM CST 5:51 PM CST
Nautical Twilight 6:25 AM CST 6:23 PM CST
Astronomical Twilight 5:53 AM CST 6:54 PM CST
Moon 4:00 AM CST (1/19) 1:57 PM CST (1/19)
Length of Visible Light 10h 54m
Length of Day
9h 58m
Waning Crescent, 15% of the Moon is Illuminated
Jan 19
Waning Crescent
Jan 23
New
Jan 30
First Quarter
Feb 7
Full
Feb 14
Last Quarter

Hourly Weather History & Observations

Time (CST) Temp. Windchill Dew Point Humidity Pressure Visibility Wind Dir Wind Speed Gust Speed Precip Events Conditions
12:52 AM 28.9 °F 19.8 °F 16.0 °F 58% 29.94 in 10.0 mi South 10.4 mph - N/A   Clear
1:52 AM 30.0 °F 20.5 °F 17.1 °F 59% 29.93 in 10.0 mi South 11.5 mph - N/A   Clear
2:52 AM 28.9 °F 20.4 °F 18.0 °F 64% 29.93 in 10.0 mi South 9.2 mph - N/A   Clear
3:52 AM 27.0 °F 18.0 °F 18.0 °F 69% 29.92 in 10.0 mi SSE 9.2 mph - N/A   Clear
4:52 AM 27.0 °F 19.5 °F 18.0 °F 69% 29.89 in 10.0 mi SSE 6.9 mph - N/A   Clear
5:52 AM 28.0 °F 21.7 °F 18.0 °F 66% 29.91 in 10.0 mi SSE 5.8 mph - N/A   Clear
6:52 AM 26.1 °F 16.8 °F 18.0 °F 71% 29.92 in 10.0 mi SSE 9.2 mph - N/A   Clear
7:52 AM 28.0 °F 18.6 °F 19.0 °F 69% 29.93 in 10.0 mi SSE 10.4 mph - N/A   Clear
8:52 AM 34.0 °F 26.6 °F 19.9 °F 56% 29.94 in 10.0 mi SSE 9.2 mph - N/A   Clear
9:52 AM 41.0 °F - 21.0 °F 45% 29.94 in 10.0 mi Calm Calm - N/A   Clear
10:52 AM 43.0 °F 41.3 °F 23.0 °F 45% 29.94 in 10.0 mi Variable 3.5 mph - N/A   Clear
11:52 AM 48.0 °F - 24.1 °F 39% 29.91 in 10.0 mi Calm Calm - N/A   Clear
12:52 PM 50.0 °F - 24.8 °F 37% 29.86 in 10.0 mi Variable 3.5 mph - N/A   Clear
1:52 PM 51.1 °F - 26.1 °F 38% 29.89 in 10.0 mi NNW 6.9 mph - N/A   Clear
2:52 PM 50.0 °F - 26.1 °F 39% 29.89 in 10.0 mi North 8.1 mph - N/A   Clear
3:52 PM 48.0 °F - 26.1 °F 42% 29.92 in 10.0 mi North 10.4 mph - N/A   Clear
4:52 PM 45.0 °F 40.6 °F 27.0 °F 49% 29.94 in 10.0 mi North 8.1 mph - N/A   Clear
5:52 PM 39.0 °F 31.4 °F 25.0 °F 57% 29.97 in 10.0 mi North 12.7 mph - N/A   Clear
6:52 PM 33.8 °F 25.8 °F 24.8 °F 70% 29.96 in 10.0 mi NNE 10.4 mph - N/A   Clear
7:52 PM 33.1 °F 25.5 °F 21.9 °F 64% 30.00 in 10.0 mi NE 9.2 mph - N/A   Clear
9:52 PM 28.0 °F 19.3 °F 19.0 °F 69% 29.97 in 10.0 mi NE 9.2 mph - N/A   Clear
10:52 PM 26.1 °F 18.4 °F 19.0 °F 75% 30.00 in 10.0 mi NNE 6.9 mph - N/A   Clear
11:52 PM 26.1 °F 19.4 °F 19.0 °F 75% 30.00 in 10.0 mi NE 5.8 mph - N/A   Clear